Skip Page Navigation
NASA JPL Caltech
NASA Logo - Jet Propulsion Laboratory + View the NASA Portal
+ Center for Near-Earth Object Studies
JPL Home Earth Solar System Stars & Galaxies Technology
JPL Solar System Dynamics
BODIES ORBITS EPHEMERIDES TOOLS PHYSICAL DATA DISCOVERY FAQ SITE MAP
IMPORTANT: The SSD Announcement email list is now available. Major changes are coming in the near future, including possible hostname and/or URL changes. To be notified of such changes, subscribe to this email list.

Please visit this page for more details.


JPL Small-Body Database Browser
Search: [ help ]  
376927 (2002 CM67)
Classification: Main-belt Asteroid          SPK-ID: 2376927
Ephemeris | Orbit Diagram | Orbital Elements | Mission Design | Physical Parameters | Discovery Circumstances | Close-Approach Data ]

[ show orbit diagram ]
Orbital Elements at Epoch 2459000.5 (2020-May-31.0) TDB
Reference: JPL 16 (heliocentric ecliptic J2000)
 Element Value Uncertainty (1-sigma)   Units 
e .0514969258595764 1.6007e-07  
a 2.598947131621535 3.4731e-08 au
q 2.465109343871462 4.2496e-07 au
i 10.20453500227765 7.2054e-06 deg
node 120.7096899846413 5.0661e-05 deg
peri 282.2691305166344 0.00017056 deg
M 206.7326906992055 0.00015768 deg
tp 2459652.040815178937
(2022-Mar-13.54081518)
0.00067292 TDB
period 1530.36348412754
4.19
3.0677e-05
8.399e-08
d
yr
n .2352382317885976 4.7154e-09 deg/d
Q 2.732784919371608 3.652e-08 au
  Orbit Determination Parameters
   # obs. used (total)      172  
   data-arc span      6324 days (17.31 yr)  
   first obs. used      2002-01-13  
   last obs. used      2019-05-08  
   planetary ephem.      DE431  
   SB-pert. ephem.      SB431-N16  
   condition code      0  
   norm. resid. RMS      .63177  
   source      ORB  
   producer      Otto Matic  
   solution date      2020-Feb-26 02:49:53  

Additional Information
 Earth MOID = 1.49896 au 
 Jupiter MOID = 2.47348 au 
 T_jup = 3.391 
[ show covariance matrix ]

Ephemeris | Orbit Diagram | Orbital Elements | Mission Design | Physical Parameters | Discovery Circumstances | Close-Approach Data ]

Physical Parameter Table
Parameter Symbol Value Units Sigma Reference Notes
absolute magnitude H 16.4   n/a MPO434332  

376927 (2002 CM67)          Discovered 2002-Jan-13 by LINEAR at Socorro
Reference: Last Updated: 2013-11-20

[ show close-approach data ]
Alternate Designations
 2002 CM67 = 2011 GJ61 
Ephemeris | Orbit Diagram | Orbital Elements | Mission Design | Physical Parameters | Discovery Circumstances | Close-Approach Data ]
ABOUT SSD CREDITS/AWARDS PRIVACY/COPYRIGHT GLOSSARY LINKS
FirstGov 2020-Feb-27 15:53 UT
(server date/time)  
NASA Home Page
Site Manager:   Ryan S. Park
Webmaster  Alan B. Chamberlin